Showing default

COSMOS 2451, 35498

Orbit data source: Space-Track

COSMOS 2451, 35498 is a payload satellite owned by KVR (CIS) in LEO that was launched on Mon, 06 Jul 2009 UTC via an ROKOT launch vehicle from the Plesetsk Missile And Space Complex (PKMTR). Payload-class satellites include a variety of spacecraft equipped with specific instruments for various scientific and technological missions. These include communications satellites like Starlink; space stations such as the ISS; scientific satellites like the Hubble; Earth observation satellites from companies like Planet Labs, Umbra, and HawkEye 360; GPS; miniature CubeSats for education and research; and military/defense satellites.

Loading next visibility...
Identifier
35498, 2009-036A
Orbit
LEO
Country
Flag of CISCIS
Related business
Manufacturer
Resehetnev ISS
Mission
Operational Defense Communications
Bus & Motor
STRELA-3, Unknown motor
Mass
225 kg wet, 225 kg dry
Launch date (UTC)
2009-07-06 (16 years ago)
Launch vehicle
ROKOT
Launch site
Plesetsk Missile And Space Complex (PKMTR)
Object type
Payload
Rocket body
Debris
Shape & HBR
Cyl + 1 Ant, 3.5 m
Radar Cross Section
1.583 m², Medium (>0.1 m² and < 1m²)

Expand to show TLE details & history
Last TLE update: 18 hours ago

TLE from 18 hours ago
0 COSMOS 2451
1 35498U 09036A   25260.32774086  .00000037  00000-0  19861-3 0  9997
2 35498  82.4827 261.6420 0008176  84.0308 276.1702 12.40863812733809
Epoch: 2025-09-17T07:51Z
TLE epoch observation values (Epoch: 2025-09-17T07:51:56.81Z)
Latitude
-0.00002°
Longitude
147.15002°
Altitude
1,504.952 km
Speed
7.112 km/s
True Right ascension
17h 26m 34s
True Declination
0° 00' 00"
Sunlit
Object was in daylight at epoch
Visualization orbit readout
Latitude
Unknown
Longitude
Unknown
Altitude
Unknown
Speed
Unknown
Apparent Right ascension
Unknown
Apparent Declination
Unknown
Sunlit
N/A
Visualization observer readout
Local Sidereal Time
18:57:20
Azimuth
Unknown
Elevation
Unknown
Doppler factor
Unknown
Orbital elements
Apogee altitude
1,506.74 km
Perigee altitude
1,493.857 km
Semi-major axis
7,878.435 km
Eccentricity
0.00082
Inclination
82.4827°
RAAN
261.642°
Arg. of periapsis
84.0308°
True anomaly
276.07704°
Mean anomaly
276.1702°
Eccentric anomaly
276.12362°
Mean motion
3.10372 °/min
Orbital period
115.99 mins
BSTAR
0.00019861
Loading maneuver chart data...
Computing Atmospheric mass density...
Loading historical data...
Loading historical data...
Loading historical data...
Loading historical data...
Loading historical data...
Loading historical data...
Loading historical data...
Other satellites on launch #36 in the year 2009 (2009-07-06 UTC)

Documentation

Showing up to 5 results
|